map of FOR home
FOR - Airport
Location
City:  Fortaleza, Ceará, Brazil
Name:Pinto Martins International Airport
ICAO:SBFZ
IATA:FOR

Details
Type:Airport (Aerodrome, Airfield)
Use:Public/Civil, Military, International (customs port of entry)
Latitude:3°46'35"S (-3.776282)
Longitude:38°31'57"W (-38.532555)
Datum:WGS 1984
Elevation:82 ft (25 m)
Variation:21.16°W (WMM2015 magnetic declination)
0.04° annual change
Runways:1
Longest:8350 × 148 ft (2545 × 45 m), paved

Time
Time Zone:UTC-3
Local Time:

Weather
METAR:SBFZ 192300Z 22002KT CAVOK 26/24 Q1013
TAF:SBFZ 192200Z 2000/2024 08005KT 7000 BKN012 TN25/2007Z TX29/2016Z
BECMG 2002/2003 14004KT BKN015
TEMPO 2009/2014 3000 RA BKN010
BECMG 2012/2 014 09009KT
BECMG 2020/2021 09004KT
RMK PEA

Related Locations
Nearby:
Farthest:ZRM: 12002 mi / 19316 km
Sarmi [Orai Airport], PA, ID

Find:

   beyond  
but within

Other Information
Maps:
NOTAMs:
Links:
Sources:

  
flag of Brazil
flag of Ceará
flag of Fortaleza
  

Sectional Chart

Flight Planning
at skyvector.com

Satellite Image

Google Maps Satellite view

 

Copyright © 2004-2017 Karl L. Swartz. All rights reserved.
The Great Circle Mapper name and logo are trademarks of the Great Circle Mapper.
All other trademarks mentioned herein belong to their respective owners.
Please see credits for attibutions and further copyright information.

  Follow gcmap on Facebook Follow gcmap on Twitter Follow gcmap on Google+ GCmap on LinkedIn

hCard Microformat

Geo Microformat